Weather History for Kelso-Longview, WA

Change the Weather History Date:

Thursday, May 2, 2013

  Actual Average Record
Temperature  
Mean Temperature 58 °F -  
Max Temperature 78 °F 60 °F 78 °F (2013)
Min Temperature 39 °F 41 °F 33 °F (2006)
Degree Days  
Heating Degree Days 6    
Growing Degree Days 8 (Base 50)    
Moisture  
Dew Point 35 °F    
Average Humidity 45    
Maximum Humidity 81    
Minimum Humidity 17    
Precipitation  
Precipitation 0.00 in - - ()
Sea Level Pressure  
Sea Level Pressure 30.40 in    
Wind  
Wind Speed 4 mph (NNW)    
Max Wind Speed 14 mph    
Max Gust Speed 21 mph    
Visibility 10 miles    
Events      
Averages and records for this station are not official NWS values.
T = Trace of Precipitation, MM = Missing Value Source: NWS Daily Summary

Daily Weather History Graph

Daily Weather History Graph

Search for Another Location

Airport:

Trip Planner

Search our weather history database for the weather conditions in past years. The results will help you decide how hot, cold, wet, or windy it might be!

Date:

Astronomy

May. 02, 2013 Rise Set
Actual Time 5:56 AM PDT 8:21 PM PDT
Civil Twilight 5:22 AM PDT 8:55 PM PDT
Nautical Twilight 4:41 AM PDT 9:37 PM PDT
Astronomical Twilight 3:53 AM PDT 10:24 PM PDT
Moon 2:11 AM PDT (5/2) 12:54 PM PDT (5/2)
Length of Visible Light 15h 32m
Length of Day
14h 25m
Waning Gibbous, 46% of the Moon is Illuminated
May 2
Waning Gibbous
May 9
New
May 17
First Quarter
May 24
Full
May 31
Last Quarter

Hourly Weather History & Observations

Time (PDT) Temp. Windchill Dew Point Humidity Pressure Visibility Wind Dir Wind Speed Gust Speed Precip Events Conditions
12:15 AM 50.0 °F - 33.8 °F 54% 30.50 in 10.0 mi Calm Calm - N/A   Clear
12:35 AM 48.2 °F - 33.8 °F 58% 30.50 in 10.0 mi Calm Calm - N/A   Clear
12:55 AM 48.2 °F - 33.8 °F 58% 30.51 in 10.0 mi Calm Calm - N/A   Clear
1:15 AM 48.2 °F - 35.6 °F 62% 30.51 in 10.0 mi Calm Calm - N/A   Clear
1:35 AM 46.4 °F - 35.6 °F 66% 30.51 in 10.0 mi Calm Calm - N/A   Clear
1:55 AM 48.2 °F - 35.6 °F 62% 30.51 in 10.0 mi SE 4.6 mph - N/A   Clear
2:15 AM 46.4 °F 45.2 °F 35.6 °F 66% 30.50 in 9.0 mi SSE 3.5 mph - N/A   Clear
2:35 AM 46.4 °F - 33.8 °F 62% 30.50 in 10.0 mi Calm Calm - N/A   Clear
2:55 AM 44.6 °F - 33.8 °F 66% 30.49 in 10.0 mi Calm Calm - N/A   Clear
3:15 AM 42.8 °F - 33.8 °F 70% 30.49 in 10.0 mi Calm Calm - N/A   Clear
3:35 AM 42.8 °F 41.1 °F 33.8 °F 70% 30.49 in 10.0 mi SE 3.5 mph - N/A   Clear
3:55 AM 44.6 °F - 33.8 °F 66% 30.49 in 10.0 mi Calm Calm - N/A   Clear
4:15 AM 41.0 °F - 33.8 °F 76% 30.49 in 10.0 mi Calm Calm - N/A   Clear
4:35 AM 41.0 °F 39.0 °F 33.8 °F 76% 30.48 in 10.0 mi SE 3.5 mph - N/A   Clear
4:55 AM 42.8 °F - 33.8 °F 70% 30.48 in 10.0 mi Calm Calm - N/A   Clear
5:15 AM 39.2 °F - 33.8 °F 81% 30.47 in 10.0 mi Calm Calm - N/A   Clear
5:35 AM 41.0 °F - 33.8 °F 76% 30.48 in 10.0 mi Calm Calm - N/A   Clear
5:55 AM 39.2 °F - 33.8 °F 81% 30.48 in 10.0 mi Calm Calm - N/A   Clear
6:15 AM 39.2 °F - 33.8 °F 81% 30.48 in 10.0 mi Calm Calm - N/A   Clear
6:35 AM 39.2 °F - 33.8 °F 81% 30.48 in 10.0 mi Calm Calm - N/A   Clear
6:55 AM 42.8 °F - 33.8 °F 70% 30.47 in 10.0 mi Calm Calm - N/A   Clear
7:15 AM 42.8 °F - 35.6 °F 76% 30.47 in 10.0 mi Calm Calm - N/A   Clear
7:35 AM 44.6 °F - 35.6 °F 71% 30.47 in 10.0 mi Calm Calm - N/A   Clear
7:55 AM 46.4 °F - 35.6 °F 66% 30.47 in 10.0 mi Calm Calm - N/A   Clear
8:15 AM 48.2 °F - 35.6 °F 62% 30.46 in 10.0 mi Calm Calm - N/A   Clear
8:35 AM 51.8 °F - 35.6 °F 54% 30.46 in 10.0 mi NNW 8.1 mph - N/A   Clear
8:55 AM 53.6 °F - 35.6 °F 51% 30.46 in 10.0 mi North 6.9 mph - N/A   Clear
9:15 AM 53.6 °F - 35.6 °F 51% 30.45 in 10.0 mi NNW 6.9 mph - N/A   Clear
9:35 AM 55.4 °F - 37.4 °F 51% 30.45 in 10.0 mi NW 6.9 mph - N/A   Clear
9:55 AM 57.2 °F - 37.4 °F 48% 30.44 in 10.0 mi NNW 8.1 mph - N/A   Clear
10:15 AM 59.0 °F - 37.4 °F 45% 30.43 in 10.0 mi NW 4.6 mph - N/A   Clear
10:35 AM 60.8 °F - 37.4 °F 42% 30.42 in 10.0 mi NW 6.9 mph - N/A   Clear
10:55 AM 60.8 °F - 39.2 °F 45% 30.42 in 10.0 mi NW 8.1 mph - N/A   Clear
11:15 AM 62.6 °F - 39.2 °F 42% 30.41 in 10.0 mi NW 6.9 mph - N/A   Clear
11:35 AM 64.4 °F - 39.2 °F 40% 30.40 in 10.0 mi NW 8.1 mph - N/A   Clear
11:55 AM 66.2 °F - 39.2 °F 37% 30.39 in 10.0 mi NW 5.8 mph - N/A   Clear
12:15 PM 68.0 °F - 41.0 °F 37% 30.39 in 10.0 mi NW 9.2 mph - N/A   Clear
12:35 PM 69.8 °F - 41.0 °F 35% 30.37 in 10.0 mi North 10.4 mph - N/A   Clear
12:55 PM 71.6 °F - 39.2 °F 31% 30.36 in 10.0 mi NW 5.8 mph - N/A   Clear
1:15 PM 73.4 °F - 39.2 °F 29% 30.35 in 10.0 mi NW 6.9 mph - N/A   Clear
1:35 PM 73.4 °F - 39.2 °F 29% 30.35 in 10.0 mi NNW 11.5 mph - N/A   Clear
1:55 PM 75.2 °F - 37.4 °F 25% 30.35 in 10.0 mi NNW 11.5 mph 16.1 mph N/A   Clear
2:15 PM 75.2 °F - 35.6 °F 24% 30.34 in 10.0 mi NNW 12.7 mph 16.1 mph N/A   Clear
2:35 PM 75.2 °F - 32.0 °F 21% 30.34 in 10.0 mi North 10.4 mph - N/A   Clear
2:55 PM 77.0 °F - 30.2 °F 18% 30.31 in 10.0 mi NNW 11.5 mph 16.1 mph N/A   Clear
3:15 PM 78.8 °F - 30.2 °F 17% 30.32 in 10.0 mi NNW 9.2 mph - N/A   Clear
3:35 PM 78.8 °F - 33.8 °F 20% 30.32 in 10.0 mi North 11.5 mph - N/A   Clear
3:55 PM 77.0 °F - 33.8 °F 21% 30.31 in 10.0 mi North 10.4 mph - N/A   Clear
4:15 PM 75.2 °F - 33.8 °F 22% 30.31 in 10.0 mi North 10.4 mph 18.4 mph N/A   Clear
4:35 PM 75.2 °F - 35.6 °F 24% 30.31 in 10.0 mi NNW 11.5 mph 20.7 mph N/A   Clear
4:55 PM 75.2 °F - 33.8 °F 22% 30.31 in 10.0 mi North 12.7 mph 20.7 mph N/A   Clear
5:15 PM 75.2 °F - 33.8 °F 22% 30.31 in 10.0 mi NNW 11.5 mph 18.4 mph N/A   Clear
5:35 PM 73.4 °F - 33.8 °F 23% 30.31 in 10.0 mi North 9.2 mph - N/A   Clear
5:55 PM 73.4 °F - 35.6 °F 25% 30.31 in 10.0 mi North 10.4 mph - N/A   Clear
6:15 PM 73.4 °F - 35.6 °F 25% 30.31 in 10.0 mi North 9.2 mph 16.1 mph N/A   Clear
6:35 PM 71.6 °F - 35.6 °F 27% 30.30 in 10.0 mi North 13.8 mph 17.3 mph N/A   Clear
6:55 PM 71.6 °F - 37.4 °F 29% 30.30 in 10.0 mi North 9.2 mph 16.1 mph N/A   Clear
7:15 PM 69.8 °F - 37.4 °F 31% 30.30 in 10.0 mi North 8.1 mph - N/A   Clear
7:35 PM 69.8 °F - 35.6 °F 28% 30.30 in 10.0 mi NNE 10.4 mph - N/A   Clear
7:55 PM 68.0 °F - 33.8 °F 28% 30.30 in 10.0 mi North 8.1 mph - N/A   Clear
8:15 PM 66.2 °F - 33.8 °F 30% 30.30 in 10.0 mi North 5.8 mph - N/A   Clear
8:35 PM 66.2 °F - 35.6 °F 32% 30.29 in 10.0 mi NNW 5.8 mph - N/A   Clear
8:55 PM 64.4 °F - 37.4 °F 37% 30.31 in 10.0 mi NW 6.9 mph - N/A   Clear
9:15 PM 64.4 °F - 37.4 °F 37% 30.31 in 10.0 mi NNW 8.1 mph - N/A   Clear
9:35 PM 64.4 °F - 39.2 °F 40% 30.32 in 10.0 mi NNW 3.5 mph - N/A   Clear
9:55 PM 62.6 °F - 39.2 °F 42% 30.33 in 10.0 mi NW 4.6 mph - N/A   Clear
10:15 PM 60.8 °F - 39.2 °F 45% 30.33 in 10.0 mi NW 3.5 mph - N/A   Clear
10:35 PM 62.6 °F - 30.2 °F 30% 30.34 in 10.0 mi North 6.9 mph - N/A   Clear
10:55 PM 60.8 °F - 30.2 °F 31% 30.33 in 10.0 mi North 8.1 mph - N/A   Clear
11:15 PM 60.8 °F - 30.2 °F 31% 30.33 in 10.0 mi North 6.9 mph - N/A   Clear
11:35 PM 59.0 °F - 30.2 °F 34% 30.33 in 10.0 mi North 5.8 mph - N/A   Clear
11:55 PM 57.2 °F - 32.0 °F 38% 30.33 in 10.0 mi NNW 5.8 mph - N/A   Clear